Location: De Platvoet
(52.2667°N, 6.1667°E)
Time: 08:18:45
(UTC+00:00)

Daily predictions for brighter satellites

Satellite Brightness Start Highest point End
(mag) Time Altitude Azimuth Time Altitude Azimuth Time Altitude Azimuth
NOSS 3-3 (A) 3.8 19:59:28 10° SSW 20:04:36 61° SE 20:10:48 10° NE
Cosmos 1544 Rocket 4.2 20:01:11 10° SSE 20:05:08 36° E 20:09:05 10° NNE
Cosmos 44 Rocket 4.4 20:00:32 10° WSW 20:05:34 55° NW 20:10:41 10° NE
Cosmos 1437 Rocket 3.6 20:04:31 10° SSE 20:07:34 27° E 20:10:39 10° NE
Cosmos 2360 Rocket 2.8 20:02:34 10° NNW 20:08:03 47° NE 20:13:31 10° ESE
Helios 1A Rocket 2.4 20:05:34 10° NNE 20:08:44 79° WNW 20:11:51 10° SSW
Cosmos 1452 Rocket 4.3 20:06:09 10° SW 20:11:18 57° WNW 20:16:29 10° NNE
EP 1 4.4 20:10:24 10° NW 20:12:59 63° NE 20:15:40 10° SE
CZ-4B R/B 3.8 20:08:23 10° S 20:13:59 62° WSW 20:19:33 10° NNW
Cosmos 2233 Rocket 4.0 20:09:42 10° S 20:15:53 83° E 20:22:04 10° NNE
Cosmos 1302 Rocket 4.3 20:13:27 10° SSW 20:18:37 75° WNW 20:23:51 10° NNE
Cosmos 1486 Rocket 4.4 20:13:30 10° NNW 20:18:41 55° ENE 20:23:52 10° SE
Okean-O 2.6 20:15:56 10° SSE 20:20:19 89° W 20:24:44 10° NNW
Cosmos 2219 Rocket 3.1 20:15:24 10° NNW 20:20:43 40° NE 20:26:02 10° ESE
Cosmos 1758 Rocket 3.6 20:16:20 10° N 20:20:46 77° E 20:25:11 10° SSE
Cosmos 909 Rocket 4.0 20:15:39 10° SSW 20:21:53 71° SE 20:28:27 10° NE
CZ-2C R/B 3.7 20:21:13 10° ESE 20:23:19 20° ENE 20:25:25 10° NNE
DNEPR-1 R/B 4.3 20:23:14 10° NW 20:28:35 90° NNW 20:34:57 11° SE
Meteor 1-25 Rocket 4.3 20:24:28 10° N 20:30:08 65° ENE 20:35:40 10° SSE
USA 245 4.3 20:26:05 10° SSE 20:31:56 72° ENE 20:37:19 10° N
IRS-1C Rocket 4.4 20:27:09 10° SE 20:32:17 55° ENE 20:37:27 10° N
Cosmos 1825 Rocket 4.5 20:29:20 10° N 20:33:19 34° ENE 20:36:52 12° SE
Cosmos 1805 3.5 20:30:53 10° N 20:33:59 39° ENE 20:36:34 13° SE
NOSS 3-3 (C) 3.7 20:31:48 10° SW 20:37:07 80° SE 20:43:36 10° NE
Cosmos 220 Rocket 4.3 20:33:31 10° S 20:37:20 41° ESE 20:41:13 10° NE
Cosmos 2322 Rocket 2.3 20:35:01 10° NNW 20:40:42 77° ENE 20:45:49 13° SE
Cosmos 1602 Rocket 3.5 20:40:23 10° N 20:44:44 77° E 20:48:44 12° SSE
USA 306 2.1 20:42:39 10° W 20:45:34 52° N 20:47:27 10° ENE
Cosmos 2082 Rocket 3.0 20:41:19 10° SW 20:46:57 58° NW 20:52:36 10° NNE
NOSS 3-4 (A) 3.9 20:41:35 10° NW 20:48:10 81° SW 20:55:06 14° SE
NOSS 3-4 (C) 3.9 20:42:13 10° NW 20:48:49 82° SW 20:55:45 14° SE
YAOGAN 11 4.2 20:47:06 10° NNE 20:51:33 82° WNW 20:56:01 10° SSW
CZ-4B R/B 2.4 20:49:58 14° SSE 20:52:52 87° WSW 20:56:24 10° NNW
Cosmos 2151 3.3 20:50:54 10° NNW 20:54:58 60° W 20:58:59 10° S
Cosmos 1076 Rocket 4.1 20:53:20 10° N 20:57:24 41° ENE 21:00:20 17° SE
Cosmos 2098 Rocket 3.2 20:53:24 11° S 20:57:50 55° E 21:01:47 10° NNE
Cosmos 44 4.0 20:52:40 10° NW 20:58:02 55° NE 21:02:45 13° ESE
Cosmos 2237 Rocket 4.3 20:54:14 10° NNW 20:58:20 20° NNE 21:02:26 10° ENE
ATLAS 2AS CENTAUR R/B 4.4 20:52:52 10° WNW 20:59:01 34° NNW 21:05:08 10° NE
CZ-4C R/B 3.8 20:55:49 10° W 21:00:17 37° NNW 21:06:00 10° NE
Ariane Rocket 3.0 20:59:02 14° SSE 21:03:29 89° WSW 21:08:35 10° NNW
Cosmos 2278 4.2 21:02:13 10° NW 21:07:48 56° WSW 21:12:37 14° S
SL-16 R/B 3.1 21:06:25 10° NW 21:11:44 42° WSW 21:16:43 11° S
COSMOS 2428 3.8 21:07:20 10° NNW 21:12:35 36° NE 21:17:37 11° ESE
Meteor 1-5 Rocket 4.3 21:06:52 10° NNW 21:12:39 86° W 21:17:38 15° S
SPOT 3 Rocket 3.9 21:09:24 12° S 21:14:11 60° WSW 21:19:17 10° NNW
Cosmos 1763 Rocket 3.9 21:10:53 14° S 21:15:08 44° ESE 21:20:06 10° NE
USA 186 4.0 21:13:54 10° SW 21:15:46 17° W 21:17:40 10° NW
USA 290 2.2 21:18:07 20° S 21:20:05 54° ESE 21:23:10 10° NNE
Cosmos 1606 Rocket 3.5 21:17:15 16° S 21:20:42 70° E 21:25:00 10° NNE
Cosmos 990 Rocket 4.0 21:17:16 10° NNW 21:22:28 82° ENE 21:26:04 20° SSE
Cosmos 1933 4.2 21:20:56 10° SSW 21:24:36 46° WNW 21:28:18 10° N
Cosmos 1464 Rocket 3.9 21:18:41 10° S 21:24:43 82° E 21:30:57 10° NNE
ISS -3.9 21:22:40 10° W 21:26:01 74° S 21:28:15 19° ESE
Helios 1B rocket 3.6 21:24:22 17° ESE 21:26:11 25° ENE 21:29:06 10° N
Cosmos 1461 3.3 21:23:06 10° WSW 21:26:45 55° NW 21:30:22 10° NE
CZ-4B R/B 3.9 21:23:15 14° S 21:27:12 54° W 21:32:00 10° NNW
Okean 1 3.0 21:25:54 22° S 21:28:06 69° E 21:31:41 10° NNE
BREEZE-M DEB (TANK) 1.3 21:25:47 10° WSW 21:28:10 42° S 21:28:12 42° S
Cosmos 1726 Rocket 3.4 21:25:49 21° S 21:28:23 60° E 21:32:23 10° NNE
COSMOS 2406 4.0 21:25:27 10° SW 21:31:05 55° NW 21:36:45 10° NNE
Terra 4.5 21:30:01 10° WSW 21:31:53 12° W 21:33:45 10° WNW
Okean O Rocket 3.8 21:31:39 10° SW 21:34:43 19° W 21:37:47 10° NW
Cosmos 1536 3.3 21:31:47 10° N 21:35:19 41° ENE 21:36:59 25° SE
GRACE-FO 1 4.4 21:34:58 24° S 21:36:57 87° W 21:40:27 10° N
GRACE-FO 2 4.4 21:35:26 24° S 21:37:24 86° W 21:40:55 10° N
Cosmos-2242 3.3 21:37:47 26° SSE 21:39:45 45° E 21:43:42 10° NNE
Cosmos 1092 Rocket 4.1 21:35:00 10° N 21:41:11 69° ENE 21:45:21 22° SSE
Cosmos 2333 Rocket 3.6 21:37:10 10° NW 21:42:01 29° WSW 21:46:30 12° SSW
Okean 1-7 Rocket 4.5 21:42:46 10° NNW 21:47:02 44° W 21:50:19 16° SSW
Cosmos 2297 Rocket 4.0 21:46:14 12° ESE 21:47:32 13° E 21:50:05 10° ENE
Cosmos 1833 4.1 21:44:13 10° SSW 21:49:49 73° ESE 21:55:27 10° NE
Cosmos 2360 Rocket 3.1 21:46:44 10° NW 21:51:59 40° WSW 21:55:44 18° SSW
CZ-2C R/B 3.8 21:52:45 17° SW 21:53:58 23° W 21:56:17 10° NW
Cosmos 1766 2.6 21:52:28 10° N 21:55:42 90° ENE 21:56:45 40° S
Cosmos 2322 3.9 21:50:56 10° NNW 21:56:38 68° NE 22:00:18 23° SE
Cosmos 1842 3.8 21:56:49 28° ESE 21:57:11 29° E 21:59:58 10° NNE
Cosmos 1975 3.9 21:54:33 10° N 21:57:51 30° ENE 21:59:14 23° ESE
Cosmos 372 Rocket 3.9 21:57:28 10° NNW 22:02:37 82° ENE 22:05:24 27° SSE
Cosmos 2034 Rocket 4.1 21:58:36 16° SSW 22:03:56 80° W 22:10:18 10° N
Cosmos 2221 3.7 22:03:18 23° ESE 22:04:32 27° E 22:08:06 10° NNE
Cosmos 2219 Rocket 2.7 21:59:22 10° NW 22:04:48 49° WSW 22:08:05 23° S
Cosmos 1271 Rocket 3.2 22:06:21 31° ESE 22:06:51 33° E 22:09:57 10° NNE
Cosmos 540 Rocket 3.5 22:07:44 13° SSW 22:12:17 79° WNW 22:17:28 10° NNE
USA 306 3.6 22:10:38 10° WNW 22:11:19 16° WNW 22:11:19 16° WNW
Helios 1A 2.7 22:12:28 10° NNE 22:16:26 83° ESE 22:18:07 33° S
Cosmos 1953 Rocket 4.4 22:13:45 10° NNW 22:17:52 42° W 22:20:10 22° SSW
RESURS DK-1 2.2 22:15:16 10° NNW 22:19:16 87° ENE 22:20:45 37° SE
Cosmos 2279 Rocket 4.2 22:16:39 26° SSE 22:20:12 61° E 22:26:22 10° NNE
Aureole 1 Rocket 4.2 22:14:56 10° NNW 22:20:37 63° WSW 22:24:34 25° S
Cosmos 2322 Rocket 3.9 22:19:53 10° NW 22:24:09 22° WSW 22:27:37 13° SW
Cosmos 1707 2.7 22:23:33 36° WSW 22:24:16 47° WNW 22:27:02 10° N
Cosmos 1634 Rocket 3.9 22:22:33 24° S 22:26:33 89° E 22:32:48 10° N
Cosmos 1937 Rocket 3.5 22:22:21 10° NNW 22:27:32 74° ENE 22:30:09 29° SE
TSX-5 3.7 22:26:23 10° NW 22:29:26 47° WSW 22:29:55 43° SSW
SL-16 R/B 4.2 22:27:03 10° NNW 22:31:41 25° NE 22:36:18 10° E
Geosat 3.9 22:27:14 10° NNE 22:32:17 84° ESE 22:35:38 21° SSW
CZ-2C R/B 3.9 22:28:14 10° NNE 22:32:38 54° E 22:34:15 35° SSE
Cosmos 2058 Rocket 3.3 22:30:59 26° SSW 22:33:19 63° WNW 22:37:38 10° N
Cosmos 468 Rocket 4.0 22:30:13 22° SSW 22:33:41 89° WNW 22:38:59 10° NNE
GP-B 4.2 22:30:41 10° NNE 22:34:39 32° E 22:36:11 25° ESE
Meteor 2-9 Rocket 4.1 22:33:15 10° NNW 22:38:41 89° E 22:41:25 31° SSE
Cosmos 44 4.3 22:34:06 10° NW 22:39:03 38° WSW 22:41:01 28° SSW
Lacrosse 4 Rocket 3.3 22:42:44 15° ESE 22:42:44 15° ESE 22:44:52 10° ENE
CZ-2C R/B 3.7 22:39:09 17° ESE 22:42:31 35° ENE 22:47:11 10° N
Cosmos 2237 Rocket 2.5 22:37:54 10° NNW 22:43:34 62° NE 22:47:09 23° SE
Cosmos 2266 Rocket 4.0 22:41:09 10° N 22:47:12 69° ENE 22:50:26 29° SSE
USA 234 4.0 22:42:01 10° ENE 22:47:46 32° SE 22:49:36 28° SSE
Cosmos 1980 3.9 22:42:11 10° NNW 22:47:51 70° ENE 22:51:12 25° SE
SeaSat 1 4.2 22:43:50 10° E 22:47:59 29° NE 22:52:10 10° NNW
Cosmos 1470 2.6 22:45:31 10° NNW 22:48:45 53° W 22:49:19 46° SW
CZ-4C R/B 4.4 22:45:12 10° NW 22:50:03 29° N 22:56:06 10° ENE
ATLAS 2AS CENTAUR R/B 4.2 22:45:27 10° NW 22:51:40 35° NNE 22:57:50 10° E
ARIANE 5 R/B 2.6 22:52:41 38° S 22:54:20 76° WSW 22:58:50 10° NNW
ALOS 2 2.5 22:54:46 39° SSE 22:56:23 86° WSW 23:00:48 10° NNW
COSMOS 2428 3.0 22:51:31 10° NW 22:57:06 56° WSW 22:59:34 32° S
Cosmos 2227 Rocket 3.8 22:55:49 17° ESE 22:57:27 20° E 23:01:24 10° NE
Helios 1B rocket 3.2 22:58:18 27° WSW 22:59:04 30° W 23:02:13 10° NNW
Cosmos 1898 Rocket 4.0 22:57:33 10° NW 23:02:31 47° WSW 23:04:34 31° SSW
ISS -2.1 22:59:34 10° W 23:01:11 22° WSW 23:01:11 22° WSW
BlueWalker 3 4.2 23:05:21 11° E 23:05:21 11° E 23:05:35 10° E
Cosmos 2263 Rocket 4.1 23:03:56 13° ESE 23:05:39 14° E 23:08:32 10° ENE
CZ-2C R/B 3.8 23:01:21 10° NNE 23:06:54 46° E 23:09:26 29° SSE
Meteor 1-11 Rocket 3.7 23:01:52 10° NNW 23:07:34 82° W 23:10:10 33° S
Cosmos 1766 Rocket 4.0 23:04:18 10° N 23:08:31 51° ENE 23:10:08 32° SE
SAR-Lupe-2 3.3 23:10:57 62° SSW 23:11:22 75° WSW 23:14:42 10° NNW
Meteor 1-10 Rocket 4.3 23:11:29 31° S 23:14:27 84° E 23:20:26 10° NNE
Cosmos 1238 Rocket 3.6 23:14:04 35° SE 23:15:09 43° E 23:19:21 10° NNE
PSLV R/B 3.5 23:11:28 10° NNE 23:15:47 80° ESE 23:17:16 41° S
Cosmos 1655 Rocket 4.2 23:14:28 10° N 23:20:41 64° ENE 23:24:14 27° SSE
Alouette 2 Rocket 3.7 23:22:40 10° N 23:26:25 65° ENE 23:28:18 33° SE
NOSS 0 Rocket 4.4 23:22:27 10° NW 23:28:17 46° WSW 23:30:48 30° SSW
Meteor 1-27 Rocket 3.8 23:25:49 33° S 23:28:33 73° E 23:34:16 10° NNE
Meteor 2-10 Rocket 4.1 23:23:33 10° N 23:29:00 58° ENE 23:32:13 25° SE
Cosmos 841 Rocket 3.8 23:27:23 24° SW 23:30:28 64° WNW 23:35:43 10° NNE
Cosmos 2297 Rocket 2.2 23:27:59 33° S 23:30:32 69° ESE 23:36:10 10° NE
Cosmos 1975 4.1 23:29:39 10° NNW 23:32:43 25° W 23:33:29 23° WSW
CZ-4C R/B 4.4 23:38:24 10° NE 23:41:18 25° E 23:41:47 24° ESE
Cosmos 2221 3.6 23:39:35 23° WSW 23:41:26 35° WNW 23:45:20 10° N
Cosmos 158 Rocket 4.4 23:39:40 33° SSE 23:41:43 51° ESE 23:46:51 10° NNE
Cosmos 1812 Rocket 4.2 23:39:58 29° SW 23:41:49 47° WNW 23:46:07 10° N
ACS3 Solar Sail 2.7 23:37:31 10° NNE 23:42:58 35° E 23:46:10 21° SE
MetOp-A 4.0 23:42:38 37° SSW 23:44:24 61° WSW 23:49:00 10° NNW
Landsat 5 4.0 23:43:30 10° NNE 23:47:25 45° E 23:48:28 36° SE
